Regional Weather Roundup
Issued by NWS

Home | Current Version | Previous Version | Text Only | Print | Product List | Glossary Off
Versions: 1 2 3 4 5 6 7 8 9 10 11 12 13 14 15 16 17 18 19 20 21 22 23 24 25 26 27 28 29 30 31 32 33 34 35 36 37 38 39 40 41 42 43 44 45 46 47 48 49 50

000
ASUS43 KBIS 020710
RWRND

NORTH DAKOTA REGIONAL WEATHER ROUNDUP
NATIONAL WEATHER SERVICE BISMARCK ND
200 AM CDT TUE JUN 02 2015

NOTE: "FAIR" INDICATES FEW OR NO CLOUDS BELOW 12,000 FEET WITH NO
SIGNIFICANT WEATHER AND/OR OBSTRUCTIONS TO VISIBILITY.


NDZ001>003-009>011-017-020800-
NORTHWEST NORTH DAKOTA

CITY           SKY/WX    TMP DP  RH WIND       PRES   REMARKS
WILLISTON      CLOUDY    64  55  72 NE12      29.82F
MINOT          CLOUDY    60  58  92 N7        29.80R
MINOT AFB      CLOUDY    61  61 100 N6        29.79S
$$

NDZ018>021-031>035-040>046-020800-
SOUTHWEST NORTH DAKOTA

CITY           SKY/WX    TMP DP  RH WIND       PRES   REMARKS
BISMARCK       CLOUDY    68  59  73 N20G30    29.80R
DICKINSON      TSTM      62  57  83 E23G31    29.78R
GARRISON         N/A     64  56  75 S7        29.82R
HETTINGER ARPT CLOUDY    65  59  81 SE3       29.76S
$$

NDZ004>008-012>016-024-026-027-054-020800-
NORTHEAST NORTH DAKOTA

CITY           SKY/WX    TMP DP  RH WIND       PRES   REMARKS
GRAND FORKS    HVY RAIN  59  52  77 NW20G31   29.90R
GRND FRKS AFB  LGT RAIN  59  54  82 N8        29.91R
DEVILS LAKE    CLOUDY    61  55  82 SE18      29.81F
$$

NDZ022-023-025-028>030-036>039-047>053-020800-
SOUTHEAST NORTH DAKOTA

CITY           SKY/WX    TMP DP  RH WIND       PRES   REMARKS
FARGO          CLOUDY    65  45  48 S22G31    29.88F
JAMESTOWN      CLOUDY    65  57  75 S9        29.82F
$$



USA.gov is the U.S. government's official web portal to all federal, state and local government web resources and services.